User: anonymous   Login
Location: Noordwijk
(52.2400°N, 4.4500°E)
Time: 12:27:18
(UTC+00:00)
Language:

LO-87 - Orbit

View from above orbital plane
View from above orbital plane
View from above satellite
View from above satellite

Ground track
Ground track

The orbit data is extracted from the following two-line orbital elements,

1 41557U 16033B   22342.27554806  .00020968  00000-0  52372-3 0  9992
2 41557  97.3904  80.8611 0010885 113.2775 301.8858 15.40123506364089
Epoch (UTC): 08 December 2022 06:36:47
Eccentricity: 0.0010885
inclination: 97.3904°
perigee height: 438 km
apogee height: 453 km
right ascension of ascending node: 80.8611°
argument of perigee: 113.2775°
revolutions per day: 15.40123506
mean anomaly at epoch: 301.8858°
orbit number at epoch: 36408

The dashed part of the orbit path shows where the satellite is in the earth's shadow,  

DLR